Regional Weather Roundup
Issued by NWS Charleston, WV

Home | Current Version | Previous Version | Text Only | Print | Product List | Glossary On
Versions: 1 2 3 4 5 6 7 8 9 10 11 12 13 14 15 16 17 18 19 20 21 22 23 24 25 26 27 28 29 30 31 32 33 34 35 36 37 38 39 40 41 42 43 44 45 46 47 48 49 50
000
ASUS41 KRLX 201010
RWRRLX
West Virginia Regional Weather Roundup
National Weather Service Charleston WV
600 AM EDT WED SEP 20 2017

Note: "fair" indicates few or no clouds below 12,000 feet with no
significant weather and/or obstructions to visibility.

WVZ003-201100-
Northern Panhandle of West Virginia

CITY           SKY/WX    TMP DP  RH WIND       PRES   REMARKS
WHEELING       CLEAR     65  63  93 CALM      30.01R FOG
$$

WVZ009-201100-
Northwest West Virginia

CITY           SKY/WX    TMP DP  RH WIND       PRES   REMARKS
PARKERSBURG    CLOUDY    66  65  96 CALM      30.01F FOG
$$

WVZ006-201100-
Western West Virginia

CITY           SKY/WX    TMP DP  RH WIND       PRES   REMARKS
HUNTINGTON     MOCLDY    67  65  93 S5        29.99S FOG
$$

WVZ015-201100-
West Central West Virginia

CITY           SKY/WX    TMP DP  RH WIND       PRES   REMARKS
CHARLESTON     MOCLDY    64  62  93 CALM      30.00S
$$

WVZ022-031-201100-
North Central West Virginia

CITY           SKY/WX    TMP DP  RH WIND       PRES   REMARKS
CLARKSBURG     PTCLDY    61  59  93 CALM      30.02R FOG
MORGANTOWN     CLEAR     63  60  90 CALM      30.02R
$$

WVZ025-035-042-045-201100-
Southern West Virginia

CITY           SKY/WX    TMP DP  RH WIND       PRES   REMARKS
BECKLEY        CLOUDY    62  60  93 CALM      30.08R
LOGAN          FOG       64  64 100 CALM      30.03S VSB 3/4
BLUEFIELD      PTCLDY    62  58  86 W6        30.10R
LEWISBURG      MOCLDY    55  55  99 CALM      30.07R FOG
$$

WVZ047-201100-
Northern Mountains of West Virginia

CITY           SKY/WX    TMP DP  RH WIND       PRES   REMARKS
ELKINS         CLOUDY    56  54  93 CALM      30.07R FOG
$$

WVZ052-201100-
Eastern Panhandle of West Virginia

CITY           SKY/WX    TMP DP  RH WIND       PRES   REMARKS
MARTINSBURG    CLEAR     56  55  97 CALM      29.96S FOG
PETERSBURG     FOG       60  60  99 CALM      30.02R VSB 1/4
$$



USA.gov is the U.S. government's official web portal to all federal, state and local government web resources and services.